Simultaneous Nadir Overpasses (SNOs) Predictions

Prediction of SNOs between AURA and NPP Satellite Orbit:

Table of predicted SNOs for the next 14.0 days since TLE Epoch: 6/25/2022
Index Date (AURA) Time (AURA) Lat,Lon (AURA) SZA (AURA ) Date (NPP) Time (NPP) Lat,Lon (NPP) SZA (NPP ) Distance(km) Time Diff (sec)
1 06/26/2022 11:25:33 -79.33, 84.32 110.19 06/26/2022 11:24:43 -79.34, 84.38 110.17 1.57 50
2 06/26/2022 12:14:53 79.55,-106.50 69.48 06/26/2022 12:15:21 79.55,-106.56 69.47 1.36 28
3 06/29/2022 03:42:01 -79.38,-159.44 110.13 06/29/2022 03:41:40 -79.38,-159.53 110.10 2.02 21
4 06/29/2022 04:31:19 79.68, 10.28 69.43 06/29/2022 04:32:15 79.69, 10.36 69.37 1.68 56
5 07/01/2022 19:09:05 79.26, 147.99 70.24 07/01/2022 19:07:55 79.26, 148.01 70.29 0.50 70
6 07/01/2022 19:58:25 -79.54, -42.50 110.17 07/01/2022 19:58:32 -79.55, -42.38 110.20 2.66 7
7 07/04/2022 11:25:31 79.36, -95.46 70.32 07/04/2022 11:24:50 79.36, -95.43 70.35 0.67 41
8 07/04/2022 12:14:51 -79.64, 74.10 110.10 07/04/2022 12:15:27 -79.65, 74.24 110.15 2.81 36
9 07/07/2022 03:41:56 79.49, 21.28 70.41 07/07/2022 03:41:44 79.50, 21.40 70.40 2.71 12



Historial Predications of SNOs between AURA and NPP
